Location: Christian Reformed Church
(43.0975°N, 93.8113°W)
Time: 16:31:52
(UTC+00:00)

Meteor 1-25 Rocket - Pass Details

Date: 19 March 2026
Orbit: 836 x 889 km, 81.2° (Epoch: 15 April)

Event Time Altitude Azimuth Distance (km) Brightness Sun altitude
Rises 09:39:14 0° 3° (N) 3,480 7.8 -29.0°
Reaches altitude 10° 09:42:28 10° 21° (NNE) 2,545 7.3 -28.5°
Maximum altitude 09:46:28 19° 65° (ENE) 1,991 6.9 -27.8°
Drops below altitude 10° 09:50:28 10° 109° (ESE) 2,549 7.2 -27.2°
Sets 09:53:41 0° 127° (SE) 3,487 7.7 -26.6°
